Regional Weather Roundup
Issued by NWS

Home | Current Version | Previous Version | Text Only | Print | Product List | Glossary On
Versions: 1 2 3 4 5 6 7 8 9 10 11 12 13 14 15 16 17 18 19 20 21 22 23 24 25 26 27 28 29 30 31 32 33 34 35 36 37 38 39 40 41 42 43 44 45 46 47 48 49 50
000
ASUS43 KMPX 210710
RWRMN
WEATHER ROUNDUP FOR MINNESOTA
NATIONAL WEATHER SERVICE TWIN CITIES/CHANHASSEN MN
200 AM CDT THU AUG 21 2014


NOTE: "FAIR" INDICATES FEW OR NO CLOUDS BELOW 12,000 FEET WITH NO
SIGNIFICANT WEATHER AND/OR OBSTRUCTIONS TO VISIBILITY. N/A MEANS
CURRENT SKY AND/OR WEATHER CONDITIONS ARE NOT AVAILABLE.

MNZ060>063-068>070-210800-
   Twin Cities Metro

CITY           SKY/WX    TMP DP  RH WIND       PRES   REMARKS
TWIN CITIES    MOCLDY    71  65  81 E13       29.84F
ST PAUL        MOCLDY    70  64  81 SE7       29.85F
CRYSTAL        CLOUDY    72  63  73 E9        29.83F
BLAINE         MOCLDY    72  64  78 E8        29.85F
LAKEVILLE      CLOUDY    66  66 100 E7        29.85S
EDEN PRAIRIE   CLOUDY    72  66  81 E8        29.83F
SOUTH ST PAUL  MOCLDY    71  64  78 SE7       29.85F
LAKE ELMO      FAIR      68  63  83 E6        29.87F
$$
MNZ001>005-007-008-013>017-022>024-027-028-210800-
   Northwest Minnesota

CITY           SKY/WX    TMP DP  RH WIND       PRES   REMARKS
BEMIDJI        PTCLDY    64  62  95 E9        29.83F
HALLOCK        MOCLDY    70  64  83 SE9       29.76F
ROSEAU         CLEAR     66  61  82 SE7       29.82F
WARROAD        CLEAR     64  61  88 SE8       29.84F
THIEF RVR FALL MOCLDY    64  63  94 E7        29.79F
CROOKSTON      CLOUDY    70  64  83 SE9       29.77F
FOSSTON        MOCLDY    64  61  88 SE6       29.81F
DETROIT LAKES  CLOUDY    68  63  83 SE10G18   29.81S
MOORHEAD       CLOUDY    72  70  94 E9        29.74F
PARK RAPIDS    CLOUDY    67  63  87 SE9       29.83F
MAHNOMEN       FAIR      67  63  87 SE12      29.79S
$$
MNZ006-009>011-018-025>026-210800-
   North Central Minnesota

CITY           SKY/WX    TMP DP  RH WIND       PRES   REMARKS
BAUDETTE       CLEAR     61  59  93 SE6       29.86F
FLAG ISLAND    CLEAR     70  64  83 S10       29.84F
INTL FALLS     CLEAR     58  57  97 CALM      29.91S
WASKISH        CLEAR     63  61  94 CALM      29.85F
BIG FORK       CLEAR     61  59  94 SE5       29.90F
LONGVILLE      PTCLDY    61  61 100 E5        29.86F
GRAND RAPIDS   MOCLDY    59  55  88 E5        29.89F
CRANE LAKE     FOG       52  52 100 CALM      29.95S VSB 1
ORR            CLEAR     57  54  88 E5        29.91S
COOK           CLEAR     57  55  94 CALM      29.93F
WALKER         PTSUNNY   64  62  92 E6        29.85F
$$
MNZ012-019>021-037-210800-
   Northeast Minnesota

CITY           SKY/WX    TMP DP  RH WIND       PRES   REMARKS
DULUTH         CLOUDY    62  60  93 E7        29.92F FOG
ELY            MOCLDY    57  55  94 S3        29.96R
HIBBING        FOG       59  57  93 SE6       29.92F VSB 1/2
EVELETH        FOG       57  55  94 CALM      29.95F VSB 1
DULUTH HARBOR  CLOUDY    63  61  94 NE12      29.92F
TWO HARBORS    CLOUDY    61  55  82 NE7       29.93F
SILVER BAY     CLOUDY    59  59 100 NE3       29.94F
GRAND MARAIS     N/A     61  59  93 E5        29.95F
G MARAIS ARPRT FOG       57  54  88 CALM      29.99S VSB 1/2
$$
MNZ029>031-032-039>041-046>048-054>057-064-210800-
   West Central Minnesota

CITY           SKY/WX    TMP DP  RH WIND       PRES   REMARKS
FERGUS FALLS   CLOUDY    70  64  83 E9        29.74F
WHEATON        LGT RAIN  68  66  94 SE14      29.73F
MORRIS           N/A     70  68  94 SE15      29.75R THUNDER
ALEXANDRIA     TSTM      69  65  86 SE15      29.78F
ELBOW LAKE     MOCLDY    68  67  96 SE14      29.75F
WADENA         CLOUDY    66  63  88 E10       29.80F
GLENWOOD       TSTM      70  66  88 E13G18    29.79F
APPLETON       TSTM      73  70  88 NE3       29.75R
BENSON         CLOUDY    72  68  88 SE12G18   29.72F
ORTONVILLE     RAIN      72  68  88 E8G18     29.74R
MADISON        CLOUDY    73  72  94 SE12G18   29.71S
WILLMAR        CLOUDY    73  66  78 SE15        N/A
$$
MNZ033>034-036-042>043-049>051-058-059-210800-
   Central Minnesota

CITY           SKY/WX    TMP DP  RH WIND       PRES   REMARKS
ST CLOUD       MOCLDY    70  63  78 SE8       29.82F
SAUK CENTRE    CLOUDY    69  65  87 E9        29.80F
PAYNESVILLE    LGT RAIN  68  65  90 E12       29.80S
AITKIN         MOCLDY    64  59  82 E5        29.85F
PINE RIVER     MOCLDY    64  63  94 SE8       29.88F
BRAINERD       MOCLDY    66  62  87 VRB6      29.85F
STAPLES        CLOUDY    64  61  88 E6        29.82F
LONG PRAIRIE   FAIR      66  63  88 E10       29.81F
LITTLE FALLS   CLOUDY    66  61  82 E9G17     29.82F
LITCHFIELD     MOCLDY    73  72  94 E10       29.80F
BUFFALO        MOCLDY    70  64  80 E5        29.84S
MAPLE LAKE     PTCLDY    71  67  87 SE7       29.84S
$$
MNZ037-044-045-052-053-210800-
   East Central Minnesota

CITY           SKY/WX    TMP DP  RH WIND       PRES   REMARKS
PRINCETON      MOCLDY    68  64  88 E9        29.83F
MORA           CLOUDY    64  61  88 E3        29.88F
CAMBRIDGE      PTCLDY    70  59  68 E6        29.84F
RUSH CITY      CLOUDY    65  62  90 E3        29.87F
MOOSE LAKE     MOCLDY    59  57  94 CALM      29.88F
HINCKLEY       CLOUDY    63  63 100 E5        29.89F
CLOQUET        CLOUDY    61  59  94 E7        29.92F FOG
MCGREGOR       MOCLDY    61  59  94 E6        29.89F
$$
MNZ071>073-080-081-089-090-097-098-210800-
   Southwest Minnesota

CITY           SKY/WX    TMP DP  RH WIND       PRES   REMARKS
MONTEVIDEO     TSTM      72  70  94 S10       29.73F
GRANITE FALLS  CLOUDY    72  68  88 SE15      29.76F
CANBY          CLOUDY    71  69  94 SE9       29.72F THUNDER
MARSHALL       CLOUDY    70  64  83 S21       29.72F THUNDER
REDWOOD FALLS  CLOUDY    72  68  87 E13       29.76S
OLIVIA         CLOUDY    72  66  83 SE12      29.77F
PIPESTONE      CLOUDY    75  72  88 SE10G17   29.74F
WINDOM         TSTM      72  68  88 E13G18    29.76F
WORTHINGTON    MOCLDY    73  14  10 S15G21    29.75F
JACKSON        CLOUDY    70  68  94 SE13      29.78F
TRACY          TSTM      67  65  94 SE16G24   29.81S
SLAYTON        CLOUDY    69  67  93 NE5       29.80F
$$
MNZ065>067-074>077-082>085-091>093-210800-
   South Central Minnesota

CITY           SKY/WX    TMP DP  RH WIND       PRES   REMARKS
MANKATO        CLOUDY    72  63  73 SE14      29.82S
NEW ULM        MOCLDY    72  70  94 SE12      29.80S
ST JAMES       MOCLDY    72  68  88 E12       29.79F
FAIRMONT       CLOUDY    70  64  83 MISG      29.80F
GLENCOE        MOCLDY    72  67  83 E9        29.82R
FARIBAULT      MOCLDY    75  64  69 SE3       29.85S
OWATONNA       CLOUDY    73  64  73 SE13      29.85F
WASECA         CLOUDY    72  63  73 SE10G16   29.85F
ALBERT LEA     CLOUDY    70  66  88 SE9       29.86F
$$
MNZ078>079-086>088-094>096-210800-
   Southeast Minnesota

CITY           SKY/WX    TMP DP  RH WIND       PRES   REMARKS
ROCHESTER      MOCLDY    69  66  90 S7        29.89F
RED WING       MOCLDY    72  64  78 E7        29.85F
STANTON        CLOUDY    72  67  85 E7        29.83F
DODGE CENTER   MOCLDY    70  66  88 SE7       29.88F
WINONA         CLOUDY    70  66  88 SE6       29.88F
AUSTIN         MOCLDY    70  66  88 SE5       29.88F
PRESTON        MOCLDY    68  69 100 S7        29.90F
$$
ABBREVIATIONS USED IN REMARKS
   TC - TEMPERATURES IN CELSIUS
  WCI - WIND CHILL INDEX
   HX - HEAT INDEX
  VSB - VISIBILITY
$$


USA.gov is the U.S. government's official web portal to all federal, state and local government web resources and services.